Weather History for EGNH - January, 2013

Change the Weather History Date:

Tuesday, January 8, 2013

  Actual Average Record
Temperature  
Mean Temperature 47 °F -  
Max Temperature 50 °F 43 °F 51 °F (2004)
Min Temperature 44 °F 36 °F 30 °F (1997)
Degree Days  
Heating Degree Days 18    
Moisture  
Dew Point 47 °F    
Average Humidity 98    
Maximum Humidity 100    
Minimum Humidity 88    
Precipitation  
Precipitation 0.31 in - - ()
Sea Level Pressure  
Sea Level Pressure 30.14 in    
Wind  
Wind Speed 8 mph ()    
Max Wind Speed 10 mph    
Max Gust Speed -    
Visibility 3.8 miles    
Events Rain    
Averages and records for this station are not official NWS values.
T = Trace of Precipitation, MM = Missing Value Source: Averaged Metar Reports

Daily Weather History Graph

Daily Weather History Graph

Search for Another Location

Airport or City:

Trip Planner

Search our weather history database for the weather conditions in past years. The results will help you decide how hot, cold, wet, or windy it might be!

Date:

Astronomy

Jan. 08, 2013 Rise Set
Actual Time 8:27 AM GMT 4:11 PM GMT
Civil Twilight 7:44 AM GMT 4:53 PM GMT
Nautical Twilight 6:59 AM GMT 5:38 PM GMT
Astronomical Twilight 6:17 AM GMT 6:21 PM GMT
Moon 4:39 AM GMT (1/8) 1:03 PM GMT (1/8)
Length of Visible Light 9h 08m
Length of Day
7h 44m
Waning Crescent, 15% of the Moon is Illuminated
Jan 8
Waning Crescent
Jan 11
New
Jan 18
First Quarter
Jan 27
Full
Feb 3
Last Quarter

Hourly Weather History & Observations

Time (GMT) Temp. Windchill Dew Point Humidity Pressure Visibility Wind Dir Wind Speed Gust Speed Precip Events Conditions
2:50 AM 48 °F - 46 °F 89%  in - SSE 8.1 mph - -  
5:50 AM 49 °F - 47 °F 88%  in - SE 9.2 mph - -  
6:20 AM 50.0 °F - 48.2 °F 94% 30.09 in 6.2 mi SSE 10.4 mph - N/A   Overcast
6:50 AM 48.2 °F - 48.2 °F 100% 30.09 in 6.2 mi SSE 8.1 mph - N/A   Overcast
7:20 AM 50.0 °F - 48.2 °F 94% 30.09 in 6.2 mi South 8.1 mph - N/A   Overcast
7:50 AM 50.0 °F - 48.2 °F 94% 30.09 in 6.2 mi South 8.1 mph - N/A   Overcast
8:20 AM 50.0 °F - 50.0 °F 100% 30.12 in 3.7 mi South 9.2 mph - N/A Rain Light Rain
8:50 AM 49 °F - 48 °F 94%  in - South 10.4 mph - -  
8:50 AM 50.0 °F - 48.2 °F 94% 30.12 in 2.5 mi South 10.4 mph - N/A Rain Light Rain
9:20 AM 50.0 °F - 48.2 °F 94% 30.12 in 1.2 mi South 10.4 mph - N/A Rain Rain
9:50 AM 50.0 °F - 50.0 °F 100% 30.12 in 2.5 mi South 9.2 mph - N/A Rain Light Rain
10:20 AM 50.0 °F - 50.0 °F 100% 30.15 in 1.7 mi South 9.2 mph - N/A Rain Light Rain
10:50 AM 50.0 °F - 50.0 °F 100% 30.15 in 1.7 mi SSW 10.4 mph - N/A Rain Light Rain
11:20 AM 50.0 °F - 50.0 °F 100% 30.12 in 1.6 mi SSW 9.2 mph - N/A Rain Light Rain
11:50 AM 49 °F - 49 °F 100%  in - SSW 9.2 mph - -  
11:50 AM 50.0 °F - 50.0 °F 100% 30.12 in 1.6 mi SSW 8.1 mph - N/A Rain Light Rain
12:20 PM 50.0 °F - 50.0 °F 100% 30.12 in 1.6 mi SSW 9.2 mph - N/A Rain Light Rain
12:50 PM 50.0 °F - 50.0 °F 100% 30.12 in 1.2 mi SSW 9.2 mph - N/A Rain Light Rain
1:20 PM 50.0 °F - 50.0 °F 100% 30.12 in 1.2 mi SW 10.4 mph - N/A Rain Light Rain
1:50 PM 48.2 °F - 48.2 °F 100% 30.12 in 1.2 mi WSW 10.4 mph - N/A Rain Rain
2:20 PM 48.2 °F - 48.2 °F 100% 30.12 in 1.4 mi West 8.1 mph - N/A Rain Light Rain
2:50 PM 47 °F - 47 °F 99%  in - NW 10.4 mph - -  
2:50 PM 48.2 °F - 48.2 °F 100% 30.15 in 3.7 mi NW 10.4 mph - N/A Rain Light Rain
3:20 PM 46.4 °F 43.5 °F 46.4 °F 100% 30.15 in 5.6 mi NNW 5.8 mph - N/A Rain Light Rain
3:50 PM 46.4 °F 44.3 °F 46.4 °F 100% 30.15 in 6.2 mi WNW 4.6 mph - N/A Rain Light Rain
4:20 PM 46.4 °F 43.5 °F 46.4 °F 100% 30.15 in 6.2 mi West 5.8 mph - N/A Rain Light Rain
4:50 PM 46.4 °F 42.4 °F 46.4 °F 100% 30.15 in 6.2 mi West 8.1 mph - N/A   Mostly Cloudy
5:20 PM 46.4 °F 41.5 °F 46.4 °F 100% 30.18 in 6.2 mi West 10.4 mph - N/A   Scattered Clouds
5:50 PM 46 °F - 44 °F 91%  in - West 10.4 mph - -  
5:50 PM 46.4 °F 41.5 °F 46.4 °F 100% 30.18 in 6.2 mi West 10.4 mph - N/A   Scattered Clouds
6:20 PM 46.4 °F 42.4 °F 44.6 °F 93% 30.18 in 6.2 mi WNW 8.1 mph - N/A   Scattered Clouds
6:50 PM 46.4 °F 42.4 °F 44.6 °F 93% 30.18 in - WNW 8.1 mph - N/A   Clear
7:20 PM 44.6 °F 39.7 °F 44.6 °F 100% 30.18 in - WNW 9.2 mph - N/A   Clear
7:50 PM 44.6 °F 40.7 °F 44.6 °F 100% 30.18 in - NW 6.9 mph - N/A   Clear
8:20 PM 44.6 °F 40.2 °F 44.6 °F 100% 30.21 in - WNW 8.1 mph - N/A   Clear
8:50 PM 44 °F - 43 °F 95%  in - WNW 8.1 mph - -  
8:50 PM 44.6 °F 40.7 °F 44.6 °F 100% 30.21 in - WNW 6.9 mph - N/A   Clear